Location: Paris
(48.6709°N, 2.3750°E)
Time: 12:08:09
(UTC+02:00)

CAS-4B - Pass Details

Date: 07 July 2022
Orbit: 522 x 536 km, 43.0° (Epoch: 17 August)

Event Time Altitude Azimuth Distance (km) Brightness Sun altitude
Exits shadow 03:31:54 31° 211° (SSW) 934 ? -15.5°
Maximum altitude 03:32:55 36° 177° (S) 831 ? -15.5°
Drops below altitude 10° 03:36:38 10° 110° (ESE) 1,760 ? -15.2°
Sets 03:38:58 0° 102° (ESE) 2,651 ? -15.1°
